Weather Roundup
Issued by NWS

Home | Current Version | Previous Version | Text Only | Print | Product List | Glossary On
Versions: 1 2 3 4 5 6 7 8 9 10 11 12 13 14 15 16 17 18 19 20 21 22 23 24 25 26 27 28 29 30 31 32 33 34 35 36 37 38 39 40 41 42 43 44 45 46 47 48 49 50
968
NZUS93 KARX 301059
HRRWXR

CURRENT HOURLY OBSERVATIONS ACROSS
MUCH OF THE UPPER MISSISSIPPI VALLEY
NATIONAL WEATHER SERVICE LA CROSSE WI
600 AM CDT TUE AUG 30 2016


...SOUTHEAST MINNESOTA...


CITY           SKY/WX    TMP DP  RH WIND       PRES   REMARKS
ROCHESTER      MOCLDY    65  64  97 S9        30.15F
ROCHESTER/MAYO FAIR      67  66  97 S15       30.12F
WINONA         PTCLDY    70  66  88 CALM      30.12F
AUSTIN         PTCLDY    64  63  94 SE3       30.17F
ALBERT LEA     MOCLDY    66  66 100 NW3       30.20S
DODGE CENTER   MOCLDY    64  63  94 SW9       30.14F
PRESTON        PTCLDY    67  65  96 CALM      30.19S
OWATONNA       CLOUDY    68  64  88 S7        30.16F
FARIBAULT      MOCLDY    66  64  94 SW7       30.14F
$$

...ELSEWHERE IN MINNESOTA...


CITY           SKY/WX    TMP DP  RH WIND       PRES   REMARKS
MINNEAPOLIS    CLOUDY    67  64  90 NW6       30.15R
INTNL FALLS    CLEAR     48  47  96 NW6       30.20F
DULUTH         PTCLDY    63  62  97 N8        30.16R
RED WING       CLOUDY    66  64  94 NW5       30.11R
REDWOOD FALLS  CLOUDY    66  64  93 SW7       30.17R
MANKATO        NOT AVBL
WORTHINGTON    CLOUDY    66  64  93 E13       30.22S
FAIRMONT       RAIN      66  64  93 SE9       30.19F
$$

...SOUTHWEST WISCONSIN...


CITY           SKY/WX    TMP DP  RH WIND       PRES   REMARKS
LA CROSSE      CLOUDY    71  71 100 CALM      30.13F FOG
PRAIRIE DU CHI CLOUDY    71  70  96 CALM      30.15S FOG
BOSCOBEL       FOG       71  71 100 CALM      30.15S VSB 1/4
LONE ROCK      NOT AVBL
PLATTEVILLE    CLOUDY    70  70 100 CALM      30.17S
FORT MC COY    FOG       65  65 100 CALM      30.15F VSB<1/4
CAMP DOUGLAS   CLOUDY    66  66 100 CALM      30.13F FOG
MAUSTON-NEW LI CLOUDY    66  66  99 CALM      30.14S FOG
VIROQUA        CLOUDY    69  69 100 CALM      30.17F VSB 1/4
WIS DELLS      NOT AVBL
$$

...ELSEWHERE IN WISCONSIN...


CITY           SKY/WX    TMP DP  RH WIND       PRES   REMARKS
MILWAUKEE      CLOUDY    74  67  78 CALM      30.15R
MADISON        CLOUDY    69  68  96 CALM      30.14S
GREEN BAY      PTCLDY    68  68 100 S5        30.10F FOG
EAU CLAIRE     NOT AVBL
BLACK RVR FLS  FAIR      65  65 100 CALM      30.12F FOG
MEDFORD        CLOUDY    62  62 100 CALM      30.13S
WAUSAU         PTCLDY    66  64  93 W6        30.12R
WIS RAPIDS     PTCLDY    65  65 100 SW5       30.13F FOG
MARSHFIELD     CLEAR     65  61  87 N7        30.13R
RICE LAKE      CLOUDY    65  62  89 NW3       30.14S
$$

...NORTHEAST IOWA...


CITY           SKY/WX    TMP DP  RH WIND       PRES   REMARKS
WATERLOO       CLOUDY    67  65  93 CALM      30.16R
DUBUQUE        CLOUDY    69  68  96 W3        30.17S FOG
DECORAH        MOCLDY    68  68 100 CALM      30.17S FOG
MASON CITY     CLOUDY    68  67  96 N7        30.20S
CHARLES CITY   CLOUDY    70  70 100 CALM      30.18S
OELWEIN        CLOUDY    68  66  94 NW5       30.18S
$$

...ELSEWHERE IN IOWA...


CITY           SKY/WX    TMP DP  RH WIND       PRES   REMARKS
DES MOINES     CLOUDY    71  70  96 W3        30.17R FOG
IOWA CITY      CLOUDY    71  70  96 SW3       30.17S
FORT DODGE     CLOUDY    68  64  88 S3        30.20R
MARSHALLTOWN   CLOUDY    67  67 100 CALM      30.17R
CEDAR RAPIDS   MOCLDY    69  69 100 CALM      30.16R FOG
$$

...NORTHERN ILLINOIS...


CITY           SKY/WX    TMP DP  RH WIND       PRES   REMARKS
CHICAGO-OHARE  LGT RAIN  73  72  96 CALM      30.14S FOG
CHICAGO-MIDWAY CLOUDY    76  72  87 SE3       30.14S FOG
MOLINE         TSTM      71  68  90 W8        30.18R VSB 1
ROCKFORD       CLOUDY    69  67  93 S6        30.17F
PEORIA         CLOUDY    71  70  96 NE8       30.16S
$$

NOTE: "FAIR" INDICATES FEW OR NO CLOUDS BELOW 12,000 FEET WITH NO
SIGNIFICANT WEATHER AND/OR OBSTRUCTIONS TO VISIBILITY. WIND
SPEEDS ARE IN MILES-PER-HOUR.




USA.gov is the U.S. government's official web portal to all federal, state and local government web resources and services.